www.pogodaiklimat.ru

Погода и климат >> Архив погоды >> Россия >> Якутия >> Агаякан


ПОГОДА в Агаякане

  • Прогноз погоды в Агаякане
  • Монитор погоды в Агаякане
  • Климат города

АРХИВ ПОГОДЫ в Агаякане

Время (UTC), дата Ветер
(напр.,м/с)
 
Видим.   Явления Облачность Т
(С)
Тd
(С)
f
(%)
Тe
(С)
Тes
(С)
Комфортность P
(гПа)
Po
(гПа)
Тmin
(С)
Tmax
(С)
R
(мм)
R24
(мм)
S
(см)
21 18.06 ЮВ 1 50 км 3/0
[Ci fib]
+10.3 +6.5 77 +10 +14 1010.9 921.6 +7.0
00 19.06 штиль 0 50 км ясно +16.3 +6.8 53 +16 +30 опасность
простуды
1010.8 923.3
03 19.06 Ю 1 50 км 6/6 600 м
[Cb cap]
+19.7 +6.6 42 +22 +28 комфорт 1007.7 921.4
06 19.06 штиль 0 50 км {ливн. осадки} 8/8 600 м
[Cb cap]
+22.0 +2.6 28 +22 +24 комфорт 1005.1 919.5
09 19.06 штиль 0 50 км 10/10 600 м
[Cb cap]
+15.1 +7.2 59 +15 +15 1007.7 920.1 +22.4 0.0
12 19.06 штиль 0 50 км {дождь} 8/8 1000 м
[Sc]
+11.4 +9.4 88 +11 +11 1009.6 920.7
15 19.06 Ю 1 50 км 4/0
[Ac trans]
+5.9 +5.4 97 +5 +5 1011.3 920.5
18 19.06 ЮЗ 1 50 км 8/8 1000 м
[Sc]
+3.9 +3.7 99 +2 +2 1012.5 921.0
21 19.06 Ю 1 50 км 8/8 1000 м
[Sc]
+6.7 +5.6 93 +6 +6 1012.3 921.7 +3.7 0.0
00 20.06 штиль 0 50 км 6/0
[]
+13.3 +9.0 75 +13 +23 1008.3 912.0
03 20.06 СВ 2 50 км 6/6 600 м
[Cu hum]
+20.4 +7.4 43 +22 +27 комфорт 1004.1 918.3
06 20.06 штиль 0 50 км {ливн. осадки} 8/8 600 м
[Cb cap]
+19.7 +7.9 46 +20 +23 1003.1 917.2
09 20.06 СВ 1 50 км 6/6 600 м
[Cu hum]
+17.6 +9.4 59 +19 +20 1003.3 916.8 +21.0 0.8
12 20.06 штиль 0 50 км 8/8 600 м
[Cu Sc]
+15.1 +9.3 68 +15 +15 1004.3 917.0
15 20.06 штиль 0 50 км 8/8 1000 м
[Sc]
+8.8 +5.0 77 +8 +8 1006.5 917.1
18 20.06 штиль 0 50 км 10/10 1000 м
[Sc]
+5.6 +4.2 91 +5 +5 1007.7 917.2
21 20.06 штиль 0 50 км 4/4 1000 м
[Sc]
+9.5 +6.0 79 +9 +12 1009.0 919.5 +5.5
00 21.06 СВ 2 50 км ясно +16.9 +5.3 46 +17 +27 1004.6 919.4
03 21.06 СВ 2 50 км 4/4 600 м
[Cu hum]
+21.4 +2.2 28 +21 +29 комфорт 1003.4 917.8
06 21.06 С 3 50 км 8/4 600 м
[Cu hum Ci fib]
+22.0 +0.5 24 +21 +25 комфорт 1000.9 915.6
09 21.06 ЮЗ 2 50 км 4/4 600 м
[Cu hum]
+21.3 +0.6 25 +21 +22 комфорт 1000.8 915.4 +22.3
12 21.06 СВ 1 50 км 6/3 600 м
[Cu hum Ci fib]
+19.0 +3.6 36 +20 +20 1002.5 916.4
15 21.06 штиль 0 50 км 6/3 1000 м
[Sc Ci fib]
+13.5 +4.1 53 +13 +13 1005.0 917.1
18 21.06 ЮВ 3 50 км 6/0 1000 м
[Cs]
+9.7 +4.0 68 +8 +8 1007.0 917.8
21 21.06 В 3 50 км 10/0
[Ac lent Cs]
+12.2 +4.0 57 +11 +13 1007.8 919.3 +9.7
00 22.06 В 2 50 км 10/3 1000 м
[Sc Cs]
+15.2 +6.6 56 +15 +21 1007.5 919.9
03 22.06 СВ 3 50 км 10/10 1000 м
[Sc]
+16.1 +7.5 57 +16 +16 1007.7 920.4
06 22.06 штиль 0 50 км {дождь} 10/10 1000 м
[Sc]
+16.8 +9.8 63 +17 +17 1006.3 919.3
09 22.06 С 1 50 км 9/6 600 м
[Cu Sc Ci fib]
+18.1 +8.0 52 +19 +20 1005.7 919.2 +18.4 0.0
12 22.06 штиль 0 50 км 8/4 1000 м
[Sc diur, vesp Ci fib]
+17.0 +8.9 59 +17 +17 1006.6 919.6
15 22.06 штиль 0 50 км 10/4 1000 м
[Sc As op]
+10.2 +9.0 92 +9 +9 1009.9 920.3
18 22.06 штиль 0 50 км 10/0
[As op]
+7.7 +7.3 97 +7 +7 1010.9 920.8
21 22.06 ЮЗ 2 50 км 8/0
[As trans Ci fib]
+10.5 +7.6 82 +9 +12 1011.3 922.0 +7.6
00 23.06 ЮВ 1 50 км 8/0
[Ci fib]
+17.3 +8.3 55 +18 +28 1008.9 921.8
03 23.06 СВ 1 50 км 10/6 600 м
[Cu hum Ci fib]
+22.1 +5.9 35 +23 +28 комфорт 1006.4 920.8
06 23.06 В 2 50 км 6/6 600 м
[Cu hum]
+22.6 +5.2 32 +23 +26 комфорт 1006.0 920.5
09 23.06 Ю 2 50 км 8/8 1000 м
[Sc]
+21.6 +8.1 42 +23 +23 комфорт 1005.5 919.9 +23.0
12 23.06 штиль 0 50 км 10/0
[As trans Ci fib]
+17.4 +11.1 66 +17 +17 1007.9 921.0
15 23.06 Ю 1 50 км 3/0
[As op]
+8.9 +8.1 95 +8 +8 1011.7 921.9
18 23.06 штиль 0 50 км 6/0
[Ci fib]
+6.9 +6.2 95 +6 +6 1012.1 921.6
21 23.06 В 2 50 км 6/0
[As trans]
+10.3 +5.1 70 +9 +11 1011.5 922.2 +5.1
00 24.06 Ю 1 50 км 4/0
[Ac trans]
+18.4 +9.5 56 +20 +29 1007.5 920.9
03 24.06 Ю 1 50 км 4/4 600 м
[Cu hum]
+22.7 +9.6 43 +24 +33 комфорт 1004.5 919.4
06 24.06 штиль 0 50 км 8/8 600 м
[Cb cap]
+22.6 +10.2 45 +24 +27 комфорт 1003.3 918.2
09 24.06 С 1 50 км 9/9 600 м
[Cb cap]
+18.5 +9.6 56 +20 +20 1005.0 918.6 +22.8
12 24.06 штиль 0 50 км ясно +15.9 +10.6 71 +16 +16 1005.7 918.5
15 24.06 штиль 0 50 км ясно +10.1 +8.3 89 +9 +9 1007.8 918.7
18 24.06 штиль 0 50 км ясно +6.9 +5.7 92 +6 +6 1008.9 918.7
21 24.06 Ю 1 50 км ясно +10.1 +7.6 84 +10 +14 1009.0 919.8 +6.8
00 25.06 ЮВ 1 50 км ясно +17.4 +9.8 61 +18 +30 опасность
простуды
1005.4 919.2
03 25.06 штиль 0 50 км 6/6 600 м
[Cu hum]
+22.5 +6.2 35 +23 +30 комфорт 1001.1 916.1
06 25.06 З 1 50 км 6/6 600 м
[Cu hum]
+25.4 +3.6 24 +24 +28 комфорт 999.4 915.3
09 25.06 СВ 1 50 км 10/0
[Ac trans Ci fib]
+24.4 +4.0 27 +24 +25 комфорт 998.7 914.4 +25.7
12 25.06 штиль 0 50 км 8/5 1000 м
[Sc Ac trans]
+16.3 +9.3 63 +16 +16 1001.3 914.5
15 25.06 штиль 0 50 км 10/6 1000 м
[Sc Ac As]
+11.3 +8.5 83 +11 +11 1002.5 914.2
18 25.06 штиль 0 50 км 10/0
[As op]
+8.1 +6.4 89 +7 +7 1003.0 913.7

 

Местоположение метеостанции Агаякан (Якутия, Россия): широта 63.33 долгота 141.70 высота над уровнем моря 777 м.

В архиве по умолчанию представлена погода в Агаякане за последнюю неделю. Архивные данные за месяц целиком и за предыдущие месяцы, начиная с января 2011 года, Вы можете получить, выбрав интересующий диапазон дат из раскрывающегося списка и нажав кнопку "Ввод!".


*Определитесь, кто Вы:
робот инопланетянин человек

Внимание! Время в таблицах - всемирное. Для получения местного времени необходимо прибавить поправку, которая в Агаякане равна 10 ч.

Смотрите также архив погоды в соседних городах и на ближайших метеорологических станциях:

Погода в Оймяконе (Якутия, Россия) (71 км)
Погода в Юртах (Якутия, Россия) (80 км)
Погода в Восточной (Якутия, Россия) (106 км)
Погода в Усть-Нере (Якутия, Россия) (150 км)
Погода в Делянкире (Якутия, Россия) (201 км)
Погода в Теплом Ключе (Якутия, Россия) (254 км)
Погода в Уеге (Хабаровский край, Россия) (295 км)
Погода в Томпо (Якутия, Россия) (299 км)
Погода в Сусумане (Магаданская область, Россия) (328 км)
Погода в Колымской (Магаданская область, Россия) (344 км)

Пояснения к столбцам:

Ветер - указаны скорость ветра в м/с - средняя за 10 мин, порывы в срок и между сроками (в фигурных скобках) и направление, откуда дует ветер: С - северный, СВ - северо-восточный, В - восточный, ЮВ - юго-восточный, Ю - южный, ЮЗ - юго-западный, З - западный, СЗ - северо-западный.
Видимость - горизонтальная дальность видимости в метрах или километрах. При видимости от 1 до 10 км при отсутствии осадков обычно наблюдается дымка, при ухудшении видимости до 1 км и менее - туман. В сухую погоду видимость может ухудшаться дымом, пылью или мглою.
Явления - указаны атмосферные явления, наблюдавшиеся в срок или в последний час перед сроком; фигурными скобками обозначены явления, наблюдавшиеся между сроками (за 1-3 часа до срока); квадратными скобками обозначены град или гололедные отложения с указанием их диаметра в мм.
Облачность - указаны через наклонную черту общая и нижняя облачность в баллах и высота нижней границы облаков в метрах; квадратными скобками обозначены формы облаков: Ci - перистые, Cs - перисто-слоистые, Cc - перисто-кучевые, Ac - высококучевые, As - высокослоистые, Sc - слоисто-кучевые, Ns - слоисто-дождевые, Cu - кучевые, Cb - кучево-дождевые. Подробнее классификацию облаков см. в Атласе облаков (PDF).
T - Температура воздуха - температура, измеренная на высоте 2 м над землей.
Td - Температура точки росы - температура, при понижении до которой содержащийся в воздухе водяной пар достигнет насыщения.
f - Относительная влажность воздуха - влажноcть воздуха, измеренная на высоте 2 м над землей.
Te - Эффективная температура - температура, которую ощущает одетый по сезону человек в тени. Характеристика душности погоды. При расчете учитывается влияние влажности воздуха и скорости ветра на теплоощущения человека.
Tes - Эффективная температура на солнце - температура, которую ощущает человек, с поправкой на солнечный нагрев. Характеристика знойности погоды. Зависит от высоты солнца над горизонтом, облачности и скорости ветра. Ночью, в пасмурную погоду, а также при ветре 12 м/с и более поправка равна нулю.
P - Атмосферное давление - приведенное к уровню моря атмосферное давление.
Po - Атмосферное давление - измеренное на уровне метеостанции атмосферное давление.
Tmin - Минимальная температура - минимум температуры воздуха на высоте 2 м над землей.
Tmax - Максимальная температура - максимум температуры воздуха на высоте 2 м над землей.
R - Количество осадков - Количество выпавших осадков за период времени, мм. При наведении курсора мыши на число - период времени, за который выпало указанное количество осадков.
R24 - Количество осадков - Количество выпавших осадков за 24 часа, мм.
S - Снежный покров - Высота снежного покрова, см. При наведении курсора мыши на число - состояние снежного покрова и степень покрытия местности в баллах.